This demonstration page uses our WeatherBlox Daily Observations layout. Learn more.

Left ArrowRight Arrow

Hourly Observations for March 20, 2020

Temp ( °F °C ) Dew Point ( °F °C ) Humidity (%) Winds ( mph kmh ) Pressure ( in mb ) Visibility ( mi km ) Precip ( " mm )
12:53 am 00:53 Clear 43 6.1 37 2.8 80 80 N 5 7 30.13 1020 10 16 0.00 0.00
1:53 am 01:53 Clear 42 5.6 36 2.2 79 79 NNW 3 6 30.15 1021 10 16 0.00 0.00
2:53 am 02:53 Mostly Clear 40 4.4 36 2.2 86 86 NNW 5 7 30.16 1021 10 16 0.00 0.00
3:53 am 03:53 Mostly Clear 41 5 36 2.2 82 82 NNW 5 7 30.17 1022 10 16 0.00 0.00
4:53 am 04:53 Mostly Cloudy 39 3.9 35 1.7 86 86 Calm 30.18 1022 10 16 0.00 0.00
5:53 am 05:53 Clear 40 4.4 35 1.7 83 83 N 7 11 30.19 1022 10 16 0.00 0.00
6:53 am 06:53 Clear 38 3.3 34 1.1 86 86 NW 3 6 30.20 1023 10 16 0.00 0.00
7:53 am 07:53 Sunny 38 3.3 34 1.1 86 86 Calm 30.22 1024 10 16 0.00 0.00
8:53 am 08:53 Sunny 45 7.2 38 3.3 77 77 N 3 6 30.24 1024 10 16 0.00 0.00
9:53 am 09:53 Sunny 51 10.6 39 3.9 64 64 Calm 30.24 1024 10 16 0.00 0.00
10:53 am 10:53 Sunny 55 12.8 39 3.9 55 55 Calm 30.23 1024 10 16 0.00 0.00
11:53 am 11:53 Sunny 57 13.9 40 4.4 53 53 Calm 30.22 1023 10 16 0.00 0.00
12:53 pm 12:53 Sunny 60 15.6 41 5 50 50 SSE 6 9 30.20 1023 10 16 0.00 0.00
1:53 pm 13:53 Sunny 61 16.1 39 3.9 44 44 Calm 30.18 1022 10 16 0.00 0.00
2:53 pm 14:53 Sunny 65 18.3 36 2.2 34 34 N 3 6 30.15 1021 10 16 0.00 0.00
3:53 pm 15:53 Sunny 65 18.3 30 -1.1 27 27 VRB 5 7 30.13 1020 10 16 0.00 0.00
4:53 pm 16:53 Sunny 66 18.9 29 -1.7 25 25 VRB 7 11 30.11 1020 10 16 0.00 0.00
5:53 pm 17:53 Mostly Sunny 66 18.9 30 -1.1 26 26 SSW 8 13 30.11 1020 10 16 0.00 0.00
6:53 pm 18:53 Sunny 64 17.8 34 1.1 33 33 SSW 7 11 30.11 1020 10 16 0.00 0.00
7:53 pm 19:53 Clear 59 15 35 1.7 41 41 S 5 7 30.11 1020 10 16 0.00 0.00
8:53 pm 20:53 Clear 55 12.8 37 2.8 51 51 Calm 30.13 1020 10 16 0.00 0.00
9:53 pm 21:53 Clear 52 11.1 39 3.9 61 61 Calm 30.14 1021 10 16 0.00 0.00
10:53 pm 22:53 Clear 48 8.9 39 3.9 71 71 NNE 5 7 30.16 1021 10 16 0.00 0.00
11:53 pm 23:53 Clear 45 7.2 37 2.8 74 74 Calm 30.16 1021 10 16 0.00 0.00

Powered by AerisWeather